Flag for Bangladesh Weather past 2 weeks in Jessore, Bangladesh

Now
50 °F

Fog.


Feels Like: 50 °F
Forecast: 54 / 76 °F
Wind: 2 mph from Northeast

Location: Lampang

Current Time: Dec 23, 2014 at 6:59:40 AM

Latest Report: Dec 23, 2014 at 6:00 AM


Visibility: 2 mi

Pressure: 30.07 "Hg

Humidity: 100%

Dew point: 50 °F

Location of JessoreLocation

Historic Weather in Jessore — Graph

°F

Jessore temperature yesterday

Maximum temperature yesterday: 77 °F (at 1:00 PM)
Minimum temperature yesterday: 59 °F (at 5:00 AM)
Average temperature yesterday: 68 °F

Past Weeks' High & Low Weather Summary

 TemperatureHumidityPressure
High90 °F (Dec 8, 1:00 PM)100% (Dec 8, 5:00 AM)30.18 "Hg (Dec 8, 5:00 AM)
Low55 °F (Dec 19, 5:00 AM)44% (Dec 22, 1:00 PM)29.74 "Hg (Dec 10, 8:00 AM)
Average74 °F72%30.02 "Hg
* Reported Dec 8 5:00 AM — Dec 22 10:00 PM, Jessore, Weather by CustomWeather, © 2014

Note: Actual official high and low records may vary slightly from our data, if they occured in-between our weather recording intervals... More about our weather records

Advertising

Jessore weather history for previous 24 hours

 ConditionsComfort  
Time TempWeatherWind HumidityBarometerVisibility
10:00 PM
Dec 22
63 °FFog.3 mph68%30.09 "Hg3 mi
9:00 PM63 °FFog.7 mph73%30.07 "Hg3 mi
8:00 PM64 °FFog.6 mph68%30.07 "Hg3 mi
7:00 PM64 °FFog.5 mph73%30.04 "Hg3 mi
6:00 PM66 °FFog.5 mph68%30.01 "Hg3 mi
5:00 PM68 °FFog.5 mph64%29.98 "Hg3 mi
4:00 PM73 °FBroken clouds.5 mph53%29.98 "Hg4 mi
2:00 PM75 °FScattered clouds.6 mph50%29.98 "HgN/A
1:00 PM77 °FScattered clouds.7 mph44%29.98 "HgN/A
12:00 PM75 °FCloudy.6 mph50%30.04 "Hg4 mi
11:00 AM75 °FBroken clouds.6 mph50%30.07 "Hg4 mi
10:00 AM72 °FBroken clouds.6 mph57%30.12 "Hg4 mi
9:00 AM70 °FBroken clouds.5 mph64%30.12 "Hg4 mi
8:00 AM68 °FFog.5 mph69%30.09 "Hg3 mi
7:00 AM63 °FFog.2 mph88%30.07 "Hg3 mi
6:00 AM59 °FFog.5 mph94%30.07 "Hg3 mi
Weather by CustomWeather, © 2014

See weather overviewHow to use our weather pages